This is the latest recevied weather packets stored in our database for station/object KN6CRX-10. If no packets are shown the sender has not sent any weather packets the latest 10 day(s).
| Time | Temp. | Humidity | Pressure | Rain* | Wind** | Luminosity | Snow |
|---|---|---|---|---|---|---|---|
| 1788215295 | 26.11° C | 38% | 1017.1 hPa | 0 mm | - | 146 W/m² | - |
| 1788214990 | 26.67° C | 37% | 1017.2 hPa | 0 mm | - | 130 W/m² | - |
| 1788214685 | 26.67° C | 38% | 1017.1 hPa | 0 mm | - | 135 W/m² | - |
| 1788214381 | 26.67° C | 38% | 1017.1 hPa | 0 mm | - | 183 W/m² | - |
| 1788214081 | 26.67° C | 37% | 1017.2 hPa | 0 mm | - | 229 W/m² | - |
| 1788213775 | 26.67° C | 37% | 1017.1 hPa | 0 mm | - | 277 W/m² | - |
| 1788213470 | 27.22° C | 36% | 1017.1 hPa | 0 mm | - | 282 W/m² | - |
| 1788213166 | 27.22° C | 35% | 1017.4 hPa | 0 mm | - | 299 W/m² | - |
| 1788212863 | 27.22° C | 32% | 1017.2 hPa | 0 mm | - | 288 W/m² | - |
| 1788212560 | 27.22° C | 34% | 1017.2 hPa | 0 mm | - | 348 W/m² | - |
| 1788212257 | 27.78° C | 35% | 1017.5 hPa | 0 mm | - | 273 W/m² | - |
| 1788211952 | 27.78° C | 33% | 1017.6 hPa | 0 mm | - | 288 W/m² | - |
| 1788211646 | 28.33° C | 31% | 1017.5 hPa | 0 mm | - | 447 W/m² | - |
| 1788211343 | 28.33° C | 32% | 1017.6 hPa | 0 mm | - | 558 W/m² | - |
| 1788211041 | 28.33° C | 31% | 1017.9 hPa | 0 mm | - | 634 W/m² | - |
| 1788210737 | 28.33° C | 32% | 1017.8 hPa | 0 mm | - | 562 W/m² | - |
| 1788210437 | 28.89° C | 32% | 1017.8 hPa | 0 mm | - | 547 W/m² | - |
| 1788210133 | 28.33° C | 31% | 1017.8 hPa | 0 mm | - | 709 W/m² | - |
| 1788209833 | 28.33° C | 30% | 1017.9 hPa | 0 mm | - | 576 W/m² | - |
| 1788209529 | 27.78° C | 31% | 1018.2 hPa | 0 mm | - | 584 W/m² | - |
| 1788209229 | 27.78° C | 31% | 1018 hPa | 0 mm | - | 540 W/m² | - |
| 1788208928 | 27.78° C | 32% | 1018.4 hPa | 0 mm | - | 630 W/m² | - |
| 1788208622 | 28.33° C | 29% | 1018.4 hPa | 0 mm | - | 311 W/m² | - |
| 1788208321 | 28.89° C | 28% | 1018.5 hPa | 0 mm | - | 571 W/m² | - |
| 1788208020 | 28.33° C | 29% | 1018.5 hPa | 0 mm | - | 812 W/m² | - |
* Rain latest hour (hover to see other rain measurements)
** Current wind speed in m/s (hover to see current wind gust speed)